"Pseudo-MPEC" for P10LpIU

Created 2019 Jan 14 12:18:33 UT using Find_Orb

Click here for an explanation of pseudo-MPECs

 
 Astrometry: 
     P10LpIU  C2019 01 11u$W$Oqe/CAstrometryKJTi_%Po)sn+]\*,b+6u!'JY9N.0mq-uaF51
     P10LpIU  C2019 01 11exTZ8.BCxqx%AXrI@(li5gPwJiRs.PM0e?-cYausnredacted;$nF51
     P10LpIU  C2019 01 11J,*OO6H]gPmRoe92'rNWM!%+clicko/K/)[kTAO)K?+.,[V8+A,qF51
     P10LpIU  C2019 01 11_6pnZxQ%here,L.iwMt,40Lo]2f,kffPgKA]@7qrhv$n^ml2gRFQF51
     P10LpIU  C2019 01 12.44279 10 57 04.63 +46 35 35.7    ~1CBI 19.2 GVNEOCPI52
     P10LpIU  C2019 01 12.44321 10 57 04.40 +46 35 32.9    ~1CBI 19.8 GVNEOCPI52
     P10LpIU  C2019 01 12.44362 10 57 04.20 +46 35 28.4    ~1CBI 19.4 GVNEOCPI52
     P10LpIU  C2019 01 12.44404 10 57 03.98 +46 35 25.0    ~1CBI 19.7 GVNEOCPI52
     P10LpIU ^C2019 01 12.65839510 55 29.341+46 06 54.19   ~1CJI 19.77GVNEOCP568
     P10LpIU ^C2019 01 12.66009010 55 28.510+46 06 39.71   ~1CJI 19.75GVNEOCP568
     P10LpIU ^C2019 01 12.66109810 55 28.017+46 06 31.13   ~1CJI 19.69GVNEOCP568
     P10LpIU ^C2019 01 12.66211510 55 27.517+46 06 22.48   ~1CJI 19.71GVNEOCP568
     P10LpIU KC2019 01 13.92498410 47 42.26 +43 09 47.4    ~1DNI 19.3 GVNEOCPJ95
     P10LpIU KC2019 01 13.93046410 47 40.10 +43 09 03.7    ~1DNI 20.3 GVNEOCPJ95
     P10LpIU KC2019 01 13.93990110 47 36.37 +43 07 49.1    ~1DNI 19.8 GVNEOCPJ95
     P10LpIU KC2019 01 138PSX@for^!W$8)PYTOGAPhsvtAH@raad7:Cr4'sF_2O5l.CAjV2iK63
     P10LpIU KC2019 01 13ph!b)DZq%-=dsFSfUva5@XlSGR_2afoXUpt8oT/t;M95MlU(CpcNK63
     P10LpIU KC2019 01 13XvWjQ'dCPrSK3ZH-dWj-NbqgRvC`TtqDexplanationKS.I)ZV.nK63

Station data:
(568) Mauna Kea  (N19.826116 W155.472200)  US/Hawaii.
(F51) Pan-STARRS 1, Haleakala  (N20.707235 W156.255910)  US/Hawaii.
   Observers N. Primak, A. Schultz, S. Watters, J. Thiel, T. Goggia. Measurer
   PS1 Science Consortium. 1.8-m Ritchey-Chrétien + CCD.
(I52) Steward Observatory, Mt. Lemmon Station  (N32.442547 W110.788920)
   US/Arizona.  Observers B. M. Africano, E. J. Christensen, G. A. Farneth,
   D. C. Fuls, A. R. Gibbs, A. D. Grauer, H. Groeller, J. A. Johnson, R. A.
   Kowalski, S. M. Larson, G. J. Leonard, R. L. Seaman, F. C. Shelly. 1.0-m
   reflector + CCD.
(J95) Great Shefford  (N51.474969 W1.447003)  UK.  Observer P. Birtwhistle.
   0.40-m f/6.0 Schmidt-Cassegrain + CCD.
(K63) G. Pascoli Observatory, Castelvecchio Pascoli  (N44.082410 E10.462000)
   Italy.

Orbital elements:  P10LpIU
   Perihelion 2018 Dec 16.655729 +/- 0.00658 TT = 15:44:14 (JD 2458469.155729)
Epoch 2019 Jan 13.0 TT = JDT 2458496.5   Earth MOID: 0.0401   AutoNEOCP
M  21.60203964 +/- 0.013            (J2000 ecliptic)
n   0.79000238 +/- 0.000409         Peri.  137.80617 +/- 0.011
a   1.15891196 +/- 0.0004           Node   307.06073 +/- 0.0045
e   0.1367251 +/- 0.000269          Incl.    6.15578 +/- 0.011
P   1.25/455.69d           H 25.1   G  0.15   U  7.5  
q 1.00045959 +/- 3.95e-5    Q 1.31736434 +/- 0.000765
From 18 observations 2019 Jan. 11-13; mean residual 0".29
Residuals in arcseconds: 
190111 F51  .03+  .10-    190112 I52  .03-  .57-    190113 J95  .20+  .27+    
190111 F51  .07-  .13+    190112 I52  .14-  .61-    190113 J95  .03-  .17-    
190111 F51  .01-  .04+    190112 568  .05+  .09+    190113 J95  .22-  .19-    
190111 F51  .01-  .03+    190112 568  .06+  .07+    190113 K63  .17-  .01+    
190112 I52  .14+  .08+    190112 568  .08+  .09+    190113 K63  .15-  .93+    
190112 I52  .08-  .64+    190112 568  .06+  .13+    190113 K63  .63+  .39-    

Ephemerides (geocentric):
Date (UTC) HH   RA              Dec         delta   r     elong  mag " sig PA
---- -- -- --  -------------   -----------  ------ ------ -----  --- ---- ---
2019 01 14 12  10 43 59.226   +41 50 17.67  .04489 1.0168 136.9 20.0 .366 127
2019 01 14 13  10 43 44.063   +41 44 22.95  .04488 1.0168 137.0 20.0 .374 127
2019 01 14 14  10 43 28.927   +41 38 27.92  .04487 1.0169 137.1 20.0 .383 127
2019 01 14 15  10 43 13.820   +41 32 32.60  .04486 1.0169 137.2 20.0 .391 127
2019 01 14 16  10 42 58.741   +41 26 36.97  .04485 1.0170 137.3 20.0 .399 127
2019 01 14 17  10 42 43.689   +41 20 41.06  .04485 1.0170 137.4 20.0 .407 127
2019 01 14 18  10 42 28.665   +41 14 44.85  .04484 1.0171 137.5 19.9 .415 127
2019 01 14 19  10 42 13.668   +41 08 48.36  .04483 1.0171 137.6 19.9 .424 127
2019 01 14 20  10 41 58.699   +41 02 51.58  .04482 1.0172 137.7 19.9 .432 127
2019 01 14 21  10 41 43.758   +40 56 54.52  .04482 1.0172 137.8 19.9 .440 127
2019 01 14 22  10 41 28.844   +40 50 57.18  .04481 1.0173 137.9 19.9 .448 127
2019 01 14 23  10 41 13.958   +40 44 59.57  .04480 1.0173 138.0 19.9 .456 127
2019 01 15 00  10 40 59.099   +40 39 01.69  .04480 1.0174 138.1 19.9 .464 127
2019 01 15 01  10 40 44.268   +40 33 03.54  .04479 1.0174 138.2 19.9 .472 127
2019 01 15 02  10 40 29.464   +40 27 05.13  .04478 1.0175 138.3 19.9 .480 127
2019 01 15 03  10 40 14.687   +40 21 06.46  .04478 1.0175 138.4 19.9 .488 127
2019 01 15 04  10 39 59.937   +40 15 07.53  .04477 1.0175 138.5 19.9 .496 127
2019 01 15 05  10 39 45.215   +40 09 08.35  .04477 1.0176 138.6 19.9 .504 127
2019 01 15 06  10 39 30.520   +40 03 08.91  .04476 1.0176 138.7 19.9 .512 127
2019 01 15 07  10 39 15.852   +39 57 09.23  .04475 1.0177 138.8 19.9 .520 127
2019 01 15 08  10 39 01.211   +39 51 09.31  .04475 1.0177 138.9 19.9 .528 127
2019 01 15 09  10 38 46.597   +39 45 09.14  .04474 1.0178 139.0 19.9 .536 127
2019 01 15 10  10 38 32.010   +39 39 08.74  .04474 1.0178 139.1 19.9 .544 127
2019 01 15 11  10 38 17.450   +39 33 08.11  .04473 1.0179 139.2 19.9 .552 127
2019 01 15 12  10 38 02.917   +39 27 07.25  .04473 1.0179 139.3 19.9 .560 127
2019 01 15 13  10 37 48.411   +39 21 06.16  .04473 1.0180 139.4 19.9 .568 127
2019 01 15 14  10 37 33.932   +39 15 04.85  .04472 1.0180 139.5 19.9 .576 127
2019 01 15 15  10 37 19.480   +39 09 03.32  .04472 1.0181 139.6 19.9 .583 126
2019 01 15 16  10 37 05.054   +39 03 01.57  .04471 1.0181 139.7 19.9 .591 126
2019 01 15 17  10 36 50.655   +38 56 59.61  .04471 1.0182 139.8 19.9 .599 126
2019 01 15 18  10 36 36.282   +38 50 57.45  .04471 1.0182 139.9 19.9 .607 126
2019 01 15 19  10 36 21.937   +38 44 55.08  .04470 1.0183 140.0 19.9 .615 126
2019 01 15 20  10 36 07.618   +38 38 52.51  .04470 1.0183 140.1 19.9 .622 126
2019 01 15 21  10 35 53.325   +38 32 49.74  .04470 1.0183 140.2 19.9 .630 126
2019 01 15 22  10 35 39.059   +38 26 46.78  .04470 1.0184 140.3 19.9 .638 126
2019 01 15 23  10 35 24.819   +38 20 43.63  .04469 1.0184 140.4 19.9 .645 126
2019 01 16 00  10 35 10.606   +38 14 40.29  .04469 1.0185 140.5 19.9 .653 126
2019 01 16 01  10 34 56.419   +38 08 36.77  .04469 1.0185 140.5 19.9 .661 126
2019 01 16 02  10 34 42.258   +38 02 33.07  .04469 1.0186 140.6 19.9 .668 126
2019 01 16 03  10 34 28.123   +37 56 29.20  .04469 1.0186 140.7 19.9 .676 126
2019 01 16 04  10 34 14.015   +37 50 25.15  .04469 1.0187 140.8 19.9 .684 125
2019 01 16 05  10 33 59.933   +37 44 20.93  .04468 1.0187 140.9 19.9 .691 125
2019 01 16 06  10 33 45.877   +37 38 16.55  .04468 1.0188 141.0 19.9 .699 125
2019 01 16 07  10 33 31.847   +37 32 12.01  .04468 1.0188 141.1 19.8 .706 125
2019 01 16 08  10 33 17.843   +37 26 07.31  .04468 1.0189 141.2 19.8 .714 125
2019 01 16 09  10 33 03.866   +37 20 02.46  .04468 1.0189 141.3 19.8 .721 125
2019 01 16 10  10 32 49.914   +37 13 57.46  .04468 1.0190 141.4 19.8 .729 125
2019 01 16 11  10 32 35.988   +37 07 52.31  .04468 1.0190 141.5 19.8 .736 125